EA5EN Weather Reports


time (UTC)temp
F
wind
direction
speed
knots
gust
knots
rain 1hr
in
rain 24hr
in
rain mn
in
humidity
%
barometer
mb
20260507142055 64 19 2.6 3.5 0.00 0.05 0.05 85 1010.9
20260507141050 64 310 2.6 5.2 0.00 0.05 0.05 87 1010.8
20260507140040 0 0.0 0.0 0.00 0.05 0.05 1010.9
20260507135031 63 180 2.6 3.5 0.00 0.05 0.05 88 1010.9
20260507134026 63 215 2.6 5.2 0.01 0.05 0.05 88 1011.0
20260507133016 64 229 3.5 6.1 0.02 0.05 0.05 88 1010.9
20260507132106 65 203 3.5 5.2 0.02 0.05 0.05 86 1010.9
20260507131056 65 248 1.7 3.5 0.02 0.05 0.05 88 1011.0
20260507130051 65 248 1.7 3.5 0.02 0.05 0.05 88 1011.1
20260507125040 64 225 0.0 1.7 0.02 0.05 0.05 88 1011.2
20260507124030 64 224 0.9 1.7 0.01 0.04 0.04 88 1011.3
20260507123019 64 303 2.6 6.1 0.00 0.02 0.02 90 1011.3
20260507122114 64 309 2.6 5.2 0.00 0.02 0.02 88 1011.6
20260507121125 65 253 2.6 7.0 0.00 0.02 0.02 87 1011.5
20260507120115 66 102 2.6 6.1 0.00 0.02 0.02 79 1011.5
20260507115050 66 113 3.5 6.1 0.01 0.02 0.02 77 1011.6
20260507114041 67 87 3.5 6.1 0.01 0.02 0.02 74 1011.5
20260507113031 66 73 3.5 7.8 0.02 0.02 0.02 76 1011.7
20260507112026 66 82 3.5 9.6 0.02 0.02 0.02 76 1011.8
20260507111037 66 69 2.6 6.1 0.02 0.02 0.02 78 1011.8
20260507110107 65 73 2.6 5.2 0.02 0.02 0.02 80 1012.0
20260507105136 65 90 1.7 1.7 0.01 0.01 0.01 80 1012.0
20260507104050 65 80 2.6 3.5 0.01 0.01 0.01 78 1012.0
20260507103041 66 75 4.3 7.8 0.00 0.00 0.00 74 1011.9
20260507102031 66 74 4.3 9.6 0.00 0.00 0.00 72 1011.8
20260507101046 66 64 4.3 9.6 0.00 0.00 0.00 71 1011.7
20260507100016 67 68 7.0 13.0 0.00 0.00 0.00 70 1011.6
20260507095126 67 50 5.2 9.6 0.00 0.00 0.00 71 1011.6
20260507094055 67 64 5.2 7.8 0.00 0.00 0.00 72 1011.8
20260507093050 66 71 1.7 5.2 0.00 0.00 0.00 77 1011.8
20260507092040 65 103 1.7 3.5 0.00 0.00 0.00 80 1012.0
20260507091051 65 86 1.7 3.5 0.00 0.00 0.00 81 1012.0
20260507090026 65 90 1.7 3.5 0.00 0.00 0.00 81 1012.0
20260507085017 64 82 0.9 3.5 0.00 0.00 0.00 82 1011.9
20260507084106 65 0.0 1.7 0.00 0.00 0.00 83 1012.0
20260507083056 65 0.0 1.7 0.00 0.00 0.00 83 1012.0
20260507082111 64 90 0.9 1.7 0.00 0.00 0.00 82 1012.2
20260507081101 64 113 0.9 1.7 0.00 0.00 0.00 80 1012.1
20260507080032 64 52 0.9 3.5 0.00 0.00 0.00 79 1012.1
20260507075027 64 62 0.9 3.5 0.00 0.00 0.00 75 1012.0
20260507074016 64 49 0.9 1.7 0.00 0.00 0.00 75 1012.0
20260507073105 64 57 1.7 3.5 0.00 0.00 0.00 74 1012.0
20260507072055 65 23 1.7 3.5 0.00 0.00 0.00 74 1011.9
20260507071050 64 13 1.7 5.2 0.00 0.00 0.00 75 1011.6
20260507070041 64 21 1.7 3.5 0.00 0.00 0.00 76 1011.6
20260507065031 64 38 1.7 3.5 0.00 0.00 0.00 75 1011.6
20260507064026 64 34 2.6 3.5 0.00 0.00 0.00 74 1011.6
20260507063017 63 17 1.7 3.5 0.00 0.00 0.00 74 1011.4
20260507062127 63 0.0 1.7 0.00 0.00 0.00 76 1011.5
20260507061056 62 36 1.7 3.5 0.00 0.00 0.00 76 1011.3
20260507060050 62 41 1.7 3.5 0.00 0.00 0.00 77 1011.3
20260507055041 62 23 1.7 5.2 0.00 0.00 0.00 77 1011.3
20260507054031 62 23 1.7 3.5 0.00 0.00 0.00 78 1011.3
20260507053026 61 23 0.9 1.7 0.00 0.00 0.00 79 1011.4
20260507052016 60 23 0.9 1.7 0.00 0.00 0.00 80 1011.4
20260507051126 60 0 0.0 1.7 0.00 0.00 0.00 81 1011.1
20260507050056 60 0 0.0 1.7 0.00 0.00 0.00 81 1011.1
20260507045050 60 0 0.9 1.7 0.00 0.00 0.00 82 1011.0
20260507044040 60 0.0 0.0 0.00 0.00 0.00 83 1011.2
20260507043031 60 315 0.0 1.7 0.00 0.00 0.00 83 1011.1
20260507042026 59 338 0.9 3.5 0.00 0.00 0.00 84 1011.2
20260507041017 59 338 0.9 1.7 0.00 0.00 0.00 84 1011.1
20260507040127 60 338 0.9 1.7 0.00 0.00 0.00 85 1011.1
20260507035056 60 338 0.0 1.7 0.00 0.00 0.00 85 1011.0
20260507034131 60 338 0.9 1.7 0.00 0.00 0.00 85 1011.1
20260507033040 60 343 0.9 1.7 0.00 0.00 0.00 86 1010.9
20260507032049 60 0.0 1.7 0.00 0.00 0.00 86 1011.1
20260507031019 60 23 0.0 1.7 0.00 0.00 0.00 86 1011.0
20260507030114 60 23 0.0 1.7 0.00 0.00 0.00 85 1011.0
20260507025105 60 23 0.0 1.7 0.00 0.00 0.00 85 1011.0
20260507024055 61 23 0.0 1.7 0.00 0.00 0.00 85 1011.1
20260507023110 61 23 0.9 1.7 0.00 0.00 0.00 85 1011.1
20260507022041 61 23 0.0 1.7 0.00 0.00 0.00 85 1011.0
20260507021031 61 23 0.9 1.7 0.00 0.00 0.00 86 1011.2
20260507020026 61 23 0.9 3.5 0.00 0.00 0.00 86 1011.2
20260507015016 61 23 0.9 1.7 0.00 0.00 0.00 85 1011.3
20260507014107 61 23 0.9 3.5 0.00 0.00 0.00 85 1011.4
20260507013056 61 45 0.9 3.5 0.00 0.00 0.00 85 1011.5
20260507012131 62 26 1.7 3.5 0.00 0.00 0.00 84 1011.4
20260507011101 62 23 1.7 5.2 0.00 0.00 0.00 84 1011.4
20260507010031 62 23 1.7 3.5 0.00 0.00 0.00 84 1011.4
20260507005026 62 29 0.9 3.5 0.00 0.00 0.00 84 1011.4
20260507004017 62 15 0.9 3.5 0.00 0.00 0.00 84 1011.5
20260507003106 62 27 0.9 3.5 0.00 0.00 0.00 84 1011.5
20260507002115 62 34 1.7 3.5 0.00 0.00 0.00 83 1011.7
20260507001050 63 31 1.7 3.5 0.00 0.00 0.00 82 1011.7
20260507000040 63 18 1.7 3.5 0.00 0.00 0.00 83 1011.9
20260506235031 63 354 1.7 3.5 0.00 0.00 0.00 83 1011.8
20260506234046 63 23 1.7 3.5 0.00 0.00 0.00 83 1012.0
20260506233017 63 34 0.9 3.5 0.00 0.00 0.00 83 1012.0
20260506232107 63 15 1.7 3.5 0.00 0.00 0.00 83 1012.1
20260506231056 63 3 2.6 5.2 0.00 0.00 0.00 83 1012.1
20260506230051 63 23 0.9 3.5 0.00 0.00 0.00 83 1012.1
20260506225040 63 17 1.7 3.5 0.00 0.00 0.00 83 1012.0
20260506224029 63 19 0.9 3.5 0.00 0.00 0.00 84 1012.0
20260506223019 63 32 1.7 3.5 0.00 0.00 0.00 85 1012.0
20260506222114 63 45 0.9 3.5 0.00 0.00 0.00 85 1012.2
20260506221103 63 45 1.7 3.5 0.00 0.00 0.00 85 1012.1
20260506220053 63 28 0.9 3.5 0.00 0.00 0.00 85 1012.1
20260506215041 63 72 3.5 6.1 0.00 0.00 0.00 84 1012.2
20260506214032 64 66 2.6 6.1 0.00 0.00 0.00 84 1012.4
20260506213027 64 52 3.5 6.1 0.00 0.00 0.00 84 1012.4
20260506212016 64 57 3.5 7.0 0.00 0.00 0.00 84 1012.3
20260506211126 64 62 3.5 7.8 0.00 0.00 0.00 83 1012.3
20260506210056 64 75 4.3 6.1 0.00 0.00 0.00 83 1012.3
20260506205111 64 65 2.6 6.1 0.00 0.00 0.00 82 1012.2
20260506204041 64 72 2.6 5.2 0.00 0.00 0.00 82 1012.3
20260506203031 64 45 2.6 5.2 0.00 0.00 0.00 81 1012.1
20260506202046 64 58 2.6 5.2 0.00 0.00 0.00 80 1012.0
20260506201017 64 70 2.6 5.2 0.00 0.00 0.00 80 1011.9
20260506200106 0 0.0 0.0 0.00 0.00 0.00 1011.5
20260506175056 0 0.0 0.0 0.00 0.00 0.00 1010.7
20260506174047 0 0.0 0.0 0.00 0.00 0.00 1010.6
20260506173056 0 0.0 0.0 0.00 0.00 0.00 1010.5
20260506172031 0 0.0 0.0 0.00 0.00 0.00 1010.5
20260506171020 0 0.0 0.0 0.00 0.00 0.00 1010.4
20260506164554 68 71 7.8 13.9 0.00 0.00 0.00 66 1010.4
20260506155028 69 103 8.7 14.8 0.00 0.00 0.00 67 1010.1
20260506154039 69 84 7.8 14.8 0.00 0.00 0.00 67 1010.2
20260506153108 70 75 8.7 14.8 0.00 0.00 0.00 64 1010.0
20260506152056 70 56 9.6 15.6 0.00 0.00 0.00 64 1010.0
20260506151045 70 95 9.6 15.6 0.00 0.00 0.00 65 1010.1
20260506150040 70 38 9.6 17.4 0.00 0.00 0.00 65 1010.1
20260506145031 71 81 7.8 19.1 0.00 0.00 0.00 64 1010.1
20260506144041 71 78 8.7 15.6 0.00 0.00 0.00 64 1010.0
20260506143016 71 69 10.4 21.7 0.00 0.00 0.00 62 1010.0